Retour au catalogue

STSS DEMO 1

USA 208

ActifMilitaireLEO
NORAD 35937·PAYLOAD·🇺🇸 United States

Lancé Sep 25, 2009 depuis Cape Canaveral Space Force Station

Loading…

Prochains Passages (prochaines 24 heures)

TLE

VieillissantSource: Mike McCants

Époque: Sep 9, 2026, 21:32 UTC

1 35937U 09052A   26252.89751740 0.00000000  00000-0  00000-0 0    04
2 35937  57.9854 229.5816 0012142 223.9336 136.0663 12.83581383    05

Suivez STSS DEMO 1 en temps réel avec AllMySat

Download on the App Store